| time (UTC) | temp F | wind direction | speed knots | gust knots | rain 1hr in | rain 24hr in | rain mn in | humidity % | barometer mb |
| 20260505031559 | 49 | 217 | 4.3 | 10.4 | 0.00 | 0.50 | 0.00 | 77 | 1005.1 |
| 20260505030053 | 49 | 232 | 5.2 | 13.0 | 0.00 | 0.50 | 0.00 | 76 | 1005.0 |
| 20260505024554 | 50 | 221 | 4.3 | 14.8 | 0.00 | 0.56 | 0.01 | 76 | 1004.8 |
| 20260505023051 | 50 | 255 | 7.8 | 14.8 | 0.00 | 0.56 | 0.01 | 75 | 1004.8 |
| 20260505021552 | 51 | 319 | 4.3 | 14.8 | 0.00 | 0.56 | 0.01 | 74 | 1004.5 |
| 20260505020054 | 51 | 248 | 4.3 | 13.0 | 0.00 | 0.56 | 0.01 | 75 | 1004.5 |
| 20260505014551 | 51 | 244 | 2.6 | 10.4 | 0.00 | 0.74 | 0.01 | 75 | 1004.4 |
| 20260505013045 | 51 | 302 | 6.1 | 12.2 | 0.00 | 0.74 | 0.01 | 74 | 1004.2 |
| 20260505011545 | 51 | 213 | 6.1 | 13.0 | 0.00 | 0.74 | 0.01 | 73 | 1004.1 |
| 20260505010053 | 51 | 241 | 5.2 | 12.2 | 0.00 | 0.74 | 0.01 | 73 | 1004.2 |
| 20260505004542 | 51 | 213 | 6.1 | 13.9 | 0.00 | 0.89 | 0.01 | 73 | 1004.0 |
| 20260505003042 | 50 | 225 | 5.2 | 12.2 | 0.00 | 0.89 | 0.01 | 71 | 1003.9 |
| 20260505001540 | 50 | 238 | 3.5 | 7.8 | 0.00 | 0.89 | 0.01 | 70 | 1003.8 |
| 20260505000044 | 51 | 215 | 3.5 | 10.4 | 0.00 | 0.89 | 0.01 | 70 | 1003.4 |
| 20260504234535 | 51 | 268 | 4.3 | 13.0 | 0.00 | 0.94 | 0.01 | 70 | 1003.1 |
| 20260504233038 | 51 | 239 | 8.7 | 17.4 | 0.00 | 0.94 | 0.01 | 70 | 1002.8 |
| 20260504231531 | 51 | 296 | 7.0 | 17.4 | 0.00 | 0.94 | 0.01 | 69 | 1002.6 |
| 20260504230030 | 53 | 248 | 7.8 | 14.8 | 0.00 | 0.94 | 0.01 | 53 | 1002.7 |
| 20260504224528 | 53 | 209 | 7.0 | 16.5 | 0.00 | 0.99 | 0.01 | 52 | 1002.2 |
| 20260504223026 | 53 | 213 | 3.5 | 9.6 | 0.00 | 0.99 | 0.01 | 56 | 1002.1 |
| 20260504221524 | 53 | 225 | 2.6 | 7.0 | 0.00 | 0.99 | 0.01 | 55 | 1002.0 |
| 20260504220024 | 54 | 238 | 4.3 | 7.0 | 0.00 | 0.99 | 0.01 | 56 | 1001.9 |
| 20260504214523 | 55 | 262 | 3.5 | 12.2 | 0.00 | 1.00 | 0.01 | 56 | 1001.8 |
| 20260504213021 | 55 | 312 | 3.5 | 12.2 | 0.00 | 1.00 | 0.01 | 55 | 1001.8 |
| 20260504211521 | 55 | 248 | 6.1 | 12.2 | 0.00 | 1.00 | 0.01 | 55 | 1001.6 |
| 20260504210019 | 55 | 234 | 7.0 | 13.9 | 0.00 | 1.00 | 0.01 | 57 | 1001.5 |
| 20260504204517 | 56 | 309 | 2.6 | 12.2 | 0.00 | 1.01 | 0.01 | 60 | 1001.3 |
| 20260504203022 | 55 | 248 | 6.1 | 13.0 | 0.00 | 1.01 | 0.01 | 61 | 1001.1 |
| 20260504201510 | 54 | 254 | 6.1 | 20.0 | 0.00 | 1.01 | 0.01 | 62 | 1000.9 |
| 20260504200010 | 54 | 291 | 9.6 | 18.2 | 0.00 | 1.01 | 0.01 | 61 | 1000.7 |
| 20260504194508 | 55 | 266 | 4.3 | 20.0 | 0.00 | 1.01 | 0.01 | 65 | 1000.5 |
| 20260504193013 | 54 | 241 | 7.8 | 18.2 | 0.00 | 1.01 | 0.01 | 63 | 1000.1 |
| 20260504191503 | 53 | 277 | 10.4 | 25.2 | 0.00 | 1.01 | 0.01 | 62 | 1000.0 |
| 20260504190129 | 53 | 309 | 6.1 | 19.1 | 0.00 | 1.01 | 0.01 | 64 | 1000.0 |
| 20260504184557 | 53 | 263 | 10.4 | 20.9 | 0.00 | 1.01 | 0.01 | 64 | 999.8 |
| 20260504183055 | 53 | 295 | 9.6 | 26.1 | 0.00 | 1.01 | 0.01 | 67 | 999.7 |
| 20260504181554 | 52 | 213 | 13.0 | 22.6 | 0.00 | 1.01 | 0.01 | 65 | 999.4 |
| 20260504180050 | 52 | 284 | 10.4 | 26.1 | 0.00 | 1.01 | 0.01 | 69 | 999.3 |
| 20260504174547 | 52 | 309 | 11.3 | 23.5 | 0.00 | 1.01 | 0.01 | 71 | 999.1 |
| 20260504173044 | 51 | 245 | 12.2 | 25.2 | 0.00 | 1.01 | 0.01 | 74 | 999.2 |
| 20260504171541 | 50 | 235 | 13.0 | 25.2 | 0.00 | 1.01 | 0.01 | 78 | 999.0 |
| 20260504081523 | 38 | 250 | 14.8 | 32.2 | 0.09 | 0.88 | 0.28 | 97 | 980.3 |
| 20260504060120 | 40 | 221 | 4.3 | 7.8 | 0.06 | 0.72 | 0.12 | 99 | 976.6 |
| 20260504050106 | 39 | 281 | 3.5 | 7.0 | 0.02 | 0.66 | 0.06 | 100 | 974.9 |
| 20260504044550 | 39 | 274 | 3.5 | 7.0 | 0.04 | 0.66 | 0.06 | 100 | 974.5 |
| 20260504043056 | 39 | 294 | 2.6 | 6.1 | 0.04 | 0.65 | 0.05 | 99 | 974.3 |
| 20260504041548 | 39 | 304 | 1.7 | 4.3 | 0.04 | 0.64 | 0.04 | 99 | 973.7 |
| 20260504040047 | 39 | 32 | 0.9 | 2.6 | 0.03 | 0.63 | 0.03 | 99 | 973.6 |
| 20260504034544 | 39 | 34 | 0.0 | 5.2 | 0.03 | 0.62 | 0.02 | 99 | 973.8 |
| 20260504033042 | 39 | 88 | 8.7 | 14.8 | 0.02 | 0.61 | 0.01 | 99 | 974.2 |